SCP
-0 -0 -0 0 0 -0 0 0 0 0 0 0 0 0 -0 0 0 0 0 -0 0 0 0 0 0 0 0 0 0 0 0 0 0 0 0 0 0 0 0 0 0 0 0 0
-0 -0 0 -0 0 0 0 -0 -0 -0 -0 0 0 0 0 0 0 0 0 0 0 0 0 0 0 0 0 0 0 0 0 0 0 0 0 0 0 0 0 0 0 0 0 0
-0 0 0 -0 -0 -0 0 0 0 -0 -0 0 0 0 0 0 0 0 0 0 0 0 0 0 0 0 0 0 0 0 0 0 0 0 0 0 0 0 0 0 0 0 0 0
0 -0 -0 0 -0 0 0 -0 0 0 0 -0 0 -0 0 0 0 0 0 0 0 0 0 0 0 0 0 0 0 0 0 0 0 0 0 0 0 0 0 0 0 0 0 1
0 0 -0 -0 0 -0 0 0 0 0 0 0 0 0 0 0 0 0 0 0 0 0 0 0 0 0 0 0 0 0 0 0 0 0 0 0 0 0 0 0 0 0 0 0
0 0 0 0 0 0 -0 0 0 0 0 0 0 0 0 0 0 0 0 0 0 0 0 0 0 0 0 0 0 0 0 0 0 0 0 0 0 0 0 0 0 0 0 0
0 0 0 0 0 -0 -0 0 0 0 0 0 0 0 -0 0 -0 0 0 0 0 0 0 0 0 0 0 0 0 0 0 0 0 0 0 0 0 0 0 0 -0 0 0 1
0 0 0 0 0 0 0 -0 0 0 0 0 0 0 0 -0 -0 -0 0 0 0 0 0 0 0 0 0 0 0 0 0 0 0 -0 -0 -0 0 0 0 0 -0 0 0 1
0 0 0 0 0 0 0 0 0 0 0 0 -0 -0 -0 -0 -0 -0 -0 -0 0 0 0 0 0 0 0 0 0 0 0 0 -0 0 0 -0 -0 0 0 0 0 0 0 1
0 0 0 0 0 0 0 0 0 0 -0 -0 -0 -0 -0 -0 -0 0 0 0 0 -0 0 0 0 -0 -0 -0 0 -0 -0 0 0 0 0 0 0 0 0 0 0 0 1 2
0 0 -0 0 0 0 0 0 0 -0 -0 -0 -0 -0 -0 -0 0 0 0 0 -0 -0 -0 -0 -0 -0 -0 -0 -0 -0 0 0 -0 -0 0 0 0 -0 0 0 -0 1 1 1
0 0 0 0 0 -0 0 -0 -0 -0 -0 -0 0 -0 -0 -0 0 0 0 -0 -0 -0 -0 0 0 0 -0 -0 -0 0 0 -0 0 0 0 -0 0 -0 0 0 1 1 1 1
0 0 0 0 0 0 0 -0 -0 -0 -0 0 0 0 -0 -0 0 -0 0 -0 -0 -0 -0 -0 0 -0 0 0 -0 -0 -0 0 0 0 -0 -0 -0 0 0 0 0 0 0 0
0 0 0 0 0 -0 0 0 0 0 0 -0 -0 -0 -0 -0 -0 0 0 0 -0 0 0 -0 -0 0 -0 -0 -0 0 0 0 0 0 -0 -0 0 0 0 0 0 0 0 0
0 0 0 0 0 0 0 0 -0 0 0 0 0 0 -0 -0 -0 0 0 0 -0 0 0 -0 -0 -0 -0 0 0 0 0 0 0 -0 -0 0 0 0 0 0 0 0 0 0
0 0 0 0 0 0 -0 0 0 -0 -0 -0 0 0 0 -0 -0 0 0 -0 -0 -0 0 -0 -0 -0 0 0 0 0 0 0 0 0 0 0 0 0 0 0 0 0 0 0
0 0 0 0 0 0 0 0 0 0 0 0 -0 -0 -0 0 0 -0 0 0 0 0 0 0 0 0 0 0 0 0 0 0 0 0 0 0 0 0 0 0 0 0 0 0
0 0 0 0 0 0 0 0 0 0 0 0 -0 0 0 0 0 0 0 0 0 0 0 0 0 0 0 0 0 0 0 0 0 0 0 0 0 0 0 0 0 0 0 0
0 0 0 0 0 0 0 0 0 0 0 0 0 0 0 0 0 0 0 0 0 0 0 0 0 0 0 0 0 0 0 0 0 0 0 0 0 0 0 0 0 0 0 0
0 0 0 0 0 0 0 0 0 0 0 0 0 0 0 0 0 0 0 0 0 0 0 0 0 0 0 0 0 0 0 0 0 0 0 0 0 0 0 0 0 0 0 0
0 0 0 0 -0 0 0 0 0 0 0 0 0 0 0 -0 0 0 0 0 0 0 0 0 0 0 0 0 0 0 0 0 0 0 0 0 0 0 0 0 0 0 0 0
0 0 0 0 -0 -0 -0 0 -0 0 0 0 0 0 0 0 0 0 0 0 0 0 0 0 0 0 0 0 0 0 0 0 0 0 0 0 0 0 0 0 0 0 0 0
-0 -0 -0 -0 -0 -0 -0 0 -0 -0 -0 -0 -0 0 0 0 0 0 0 0 0 0 0 0 0 0 0 0 0 0 0 0 0 0 0 0 0 0 0 0 0 0 0 0
-0 -0 -0 -0 -0 -0 -0 0 -0 0 0 0 0 0 0 0 0 0 0 0 0 0 0 0 0 0 0 0 0 0 0 0 0 0 0 0 0 0 0 0 0 0 0 0
-0 -0 -0 -0 -0 -0 0 -0 -0 -0 -0 0 0 0 0 0 0 0 0 0 0 0 0 -0 -0 -0 0 0 0 0 0 0 0 0 0 0 0 0 0 0 0 0 0 0
-0 -0 -0 -0 -0 -0 0 0 -0 -0 0 0 0 0 0 0 0 0 0 0 -0 -0 0 0 0 0 0 0 0 0 0 0 0 0 0 0 0 0 0 0 0 0 0 0
0 0 0 0 0 0 -0 0 -0 0 0 -0 0 0 0 0 0 0 0 0 0 0 0 0 0 0 0 0 0 0 0 0 0 0 0 0 0 0 0 0 0 0 0 0
Wind_Speed_500mb
36 41 44 45 46 35 42 41 34 36 41 39 33 24 40 46 50 39 57 93 62 28 22 29 32 33 36 37 38 39 40 44 47 50 55 59 62 63 65 62 57 60 64 60
41 45 44 50 45 42 45 44 47 50 51 40 44 54 40 52 66 52 69 43 26 24 14 28 31 32 33 33 32 38 48 54 53 59 62 65 66 69 70 69 66 70 73 67
29 32 35 28 41 33 36 36 28 33 46 41 44 33 25 28 33 22 24 24 21 77 33 24 26 36 42 45 50 54 57 57 59 65 72 76 76 73 75 75 66 70 70 68
24 31 26 13 30 17 4 29 24 11 34 23 33 55 40 26 27 41 33 36 46 38 38 41 46 49 51 51 55 57 60 62 65 68 74 78 79 81 78 73 72 72 75 71
8 18 34 35 21 29 25 25 28 39 39 39 44 44 29 35 21 30 46 47 49 54 59 60 58 55 63 67 68 69 75 79 84 85 85 79 77 82 82 73 74 77 79 75
15 10 13 18 31 34 35 23 35 39 39 43 57 30 26 60 72 67 62 61 59 58 63 62 64 67 67 67 70 69 69 70 70 77 85 82 82 82 81 76 75 75 84 79
20 14 17 23 40 44 18 23 56 56 55 54 33 38 68 70 73 70 72 74 75 74 70 73 66 59 63 65 69 78 85 81 81 76 79 89 72 79 74 70 71 79 79 68
12 11 13 36 18 22 30 52 55 54 51 56 63 70 73 74 75 77 83 83 79 77 74 72 67 66 72 70 85 78 72 70 71 73 76 80 75 67 77 83 83 84 72 68
8 11 39 43 42 50 47 54 56 61 62 69 74 72 78 77 87 90 88 81 74 73 75 69 65 63 63 72 77 67 64 66 67 69 74 69 78 76 77 79 76 73 67 67
19 9 34 65 46 54 59 71 79 81 80 78 82 83 78 95 82 75 76 75 72 67 63 61 56 60 66 69 65 63 63 65 60 64 68 71 72 70 72 75 74 70 61 69
27 29 63 31 54 60 72 77 76 79 75 85 87 71 78 74 78 74 71 72 65 64 69 71 63 61 65 63 59 68 67 60 63 59 66 73 67 69 71 76 70 64 72 80
8 46 37 50 71 82 81 71 68 82 82 81 67 71 71 73 69 66 70 67 65 63 70 75 64 62 67 69 59 58 61 64 62 57 59 64 66 58 70 60 63 73 81 72
16 47 58 69 69 67 76 66 84 86 73 79 71 66 69 71 73 72 70 70 73 73 71 68 65 66 63 54 46 49 53 60 56 53 56 51 42 40 63 69 69 64 58 48
36 39 44 50 64 83 61 83 91 82 72 73 71 69 66 67 70 68 73 74 73 73 66 62 61 66 59 47 49 56 53 46 47 45 52 40 52 75 73 74 76 61 54 56
42 54 58 73 69 73 76 81 81 72 71 74 70 64 63 66 70 73 71 69 67 66 68 64 59 62 50 41 41 33 36 40 28 30 42 49 76 79 84 87 82 77 71 63
57 55 58 64 66 73 80 83 82 79 78 78 72 71 67 66 61 60 61 60 61 70 66 65 65 60 46 36 35 40 32 21 52 50 80 82 72 74 82 80 79 78 74 66
49 59 62 62 67 75 77 85 78 82 79 78 77 69 63 57 55 54 56 49 48 54 49 50 57 51 38 32 37 29 43 58 52 54 67 70 63 72 75 68 61 65 63 58
42 50 58 65 60 73 81 80 89 84 84 79 73 69 64 60 59 53 43 25 26 30 22 16 36 49 36 30 30 36 48 58 71 76 75 71 71 67 60 62 57 60 63 54
41 52 56 63 57 69 84 83 88 81 93 80 77 72 58 53 51 45 37 47 45 57 33 38 35 39 34 38 44 52 58 67 72 68 71 67 66 60 58 55 57 63 65 52
42 46 55 62 61 62 82 90 87 82 100 88 85 78 67 62 59 56 55 68 57 54 40 38 41 49 50 55 57 63 60 65 69 78 63 72 69 62 57 64 73 67 61 57
44 48 54 62 66 65 72 89 87 88 98 86 78 76 65 63 61 68 77 77 70 56 61 54 45 47 49 56 59 49 62 63 70 74 74 73 63 58 70 77 73 67 61 52
45 49 58 63 66 68 69 86 91 95 91 95 91 84 75 74 67 66 68 71 65 40 44 35 40 48 57 51 57 58 63 64 66 68 71 65 62 64 73 76 67 60 50 50
43 46 50 55 61 62 67 71 92 91 94 101 96 90 84 71 72 69 64 59 56 57 56 57 56 55 52 54 52 48 56 56 67 69 66 61 59 57 63 70 60 53 52 54
55 54 49 48 53 60 72 71 84 94 95 93 96 89 86 79 63 55 46 41 41 42 45 36 29 26 39 48 51 55 60 62 63 70 68 58 49 46 60 63 59 55 56 54
44 54 60 52 52 59 65 71 70 86 94 92 96 92 87 77 66 56 49 41 38 38 37 31 29 35 44 47 55 60 64 65 66 68 61 52 51 62 62 59 58 56 55 53
38 45 55 54 49 49 62 70 59 78 84 92 91 91 87 84 70 59 51 44 37 39 38 35 33 37 42 44 47 56 61 60 60 61 62 61 62 68 60 59 57 56 52 50
33 38 46 60 66 54 55 63 57 77 69 78 79 83 83 81 75 70 59 51 42 37 38 37 37 41 43 46 49 49 52 56 57 59 55 52 61 67 60 59 58 56 55 56
Wind_Direction_500mb
285 284 285 292 292 255 261 279 273 268 270 276 284 206 238 233 266 295 283 275 246 216 251 244 249 250 257 258 260 268 277 279 280 280 281 283 282 277 276 276 270 265 266 249
282 284 284 280 295 287 278 268 265 268 262 261 266 265 250 234 238 242 264 301 311 259 234 271 281 281 281 288 280 270 269 270 282 282 283 283 279 275 274 272 269 268 264 254
282 288 305 277 260 274 291 304 301 298 299 326 329 270 287 331 330 308 284 274 310 287 299 300 304 296 298 295 290 281 276 274 274 277 276 278 279 273 269 269 269 268 264 261
283 299 283 282 320 295 151 281 300 241 253 280 338 326 324 280 321 306 288 305 324 323 310 304 302 294 289 287 283 280 277 274 273 275 275 269 270 268 266 264 265 265 261 263
262 264 289 298 360 321 326 324 24 0 348 348 336 325 281 243 14 316 299 311 306 300 300 298 293 290 284 281 281 278 275 273 272 273 265 266 264 260 263 259 260 260 263 265
281 273 279 313 24 352 340 281 9 343 335 331 331 319 315 326 319 314 308 305 296 294 290 284 284 282 283 280 277 272 271 268 264 262 261 260 263 256 258 257 256 256 266 262
247 254 273 18 348 329 304 331 333 331 327 328 315 301 306 309 306 304 304 299 294 288 284 284 280 277 278 274 269 270 271 271 270 263 258 254 267 252 253 253 259 259 264 249
251 245 263 10 357 359 311 312 316 317 315 313 307 300 296 296 296 300 299 295 292 289 284 283 283 282 279 267 275 280 279 271 266 262 259 259 258 255 253 252 258 259 252 241
294 298 316 350 333 329 350 334 325 319 316 308 304 305 306 302 302 296 289 288 289 286 284 282 278 275 269 270 281 281 277 269 264 258 254 241 248 254 253 250 251 253 240 223
331 310 343 335 338 337 326 317 308 307 308 301 305 301 295 299 292 287 286 286 284 281 277 278 276 272 272 275 282 282 272 268 265 262 256 249 254 253 250 248 254 234 223 194
291 304 336 314 319 316 316 316 309 303 301 304 298 294 299 293 289 284 283 284 282 281 281 279 280 278 276 278 274 275 267 265 260 257 256 254 259 258 246 253 227 217 199 187
286 308 301 293 304 310 310 313 319 319 312 311 296 300 297 292 289 287 287 286 281 276 278 280 279 275 273 274 273 270 266 262 256 256 253 258 259 246 232 219 199 197 192 185
285 294 295 296 303 310 308 317 327 320 307 313 304 300 300 294 290 288 285 284 281 281 280 280 278 276 270 272 259 264 254 259 262 256 255 230 224 204 164 165 170 161 185 184
307 315 310 309 306 314 323 322 323 323 309 313 311 310 303 298 297 291 286 286 286 285 282 278 275 269 266 261 261 259 256 258 258 245 201 201 188 178 149 143 139 137 141 149
320 320 302 303 320 327 328 331 328 321 324 319 320 315 312 306 300 293 293 291 286 281 277 271 264 262 261 252 250 259 260 253 217 195 202 171 145 138 146 145 141 142 144 147
321 317 321 331 331 336 334 336 336 329 328 327 322 322 319 312 302 302 300 293 283 275 270 262 255 249 249 249 242 250 257 213 158 171 142 143 132 136 144 138 134 138 142 143
321 321 324 328 340 337 335 339 329 335 330 329 332 331 332 327 323 311 306 303 290 280 276 263 244 231 216 227 236 222 216 159 154 145 146 133 124 133 142 133 134 145 143 142
323 320 325 331 340 333 334 333 337 335 340 337 342 345 346 344 339 338 343 359 33 59 94 101 161 164 171 191 196 165 157 152 145 136 134 128 122 127 126 131 140 137 136 131
333 328 331 337 342 341 340 339 340 340 352 354 354 355 0 359 358 2 20 26 49 55 102 123 148 149 160 161 161 158 150 140 145 137 130 126 127 131 135 134 132 133 134 139
337 338 336 338 343 343 345 347 345 348 359 4 6 9 12 16 23 31 45 43 40 47 92 130 137 145 144 147 149 146 145 147 131 136 128 130 125 127 136 134 138 134 140 142
339 340 338 341 344 349 351 352 353 356 1 9 11 11 13 15 27 35 46 47 58 66 109 126 123 127 129 147 149 140 134 135 127 130 130 132 141 142 141 140 140 143 142 145
340 341 340 343 346 350 354 353 360 1 5 13 18 19 21 24 34 47 42 42 60 91 117 110 123 128 138 135 137 136 138 136 140 142 141 144 142 143 149 151 147 147 149 152
349 343 341 346 348 350 358 354 4 3 8 15 20 20 26 28 27 33 37 46 60 79 98 112 120 124 124 126 134 145 147 150 143 145 143 143 147 149 154 157 156 154 151 148
5 3 351 347 352 356 359 360 2 8 11 15 24 24 24 23 31 34 35 44 60 75 81 87 110 131 138 137 140 142 146 149 148 150 155 151 147 146 152 156 157 157 156 153
350 353 4 3 357 356 356 1 2 9 11 15 22 25 28 28 26 23 30 42 65 77 85 86 101 122 127 136 142 142 146 148 151 154 151 149 145 144 143 150 153 151 151 150
358 354 359 4 356 359 0 0 4 7 10 14 21 23 24 26 27 31 34 37 57 79 90 104 116 124 130 138 145 149 150 155 158 157 156 155 153 148 146 141 144 151 148 147
7 1 3 8 11 9 15 5 3 5 10 12 17 20 20 23 25 31 35 37 43 65 85 102 116 126 134 139 143 148 154 157 160 163 161 154 152 154 153 148 145 144 146 146
Wind_Speed_850mb
36 41 44 45 46 35 42 41 34 36 41 39 33 24 40 46 50 39 57 93 62 28 22 29 32 33 36 37 38 39 40 44 47 50 55 59 62 63 65 62 57 60 64 60
41 45 44 50 45 42 45 44 47 50 51 40 44 54 40 52 66 52 69 43 26 24 14 28 31 32 33 33 32 38 48 54 53 59 62 65 66 69 70 69 66 70 73 67
29 32 35 28 41 33 36 36 28 33 46 41 44 33 25 28 33 22 24 24 21 77 33 24 26 36 42 45 50 54 57 57 59 65 72 76 76 73 75 75 66 70 70 68
24 31 26 13 30 17 4 29 24 11 34 23 33 55 40 26 27 41 33 36 46 38 38 41 46 49 51 51 55 57 60 62 65 68 74 78 79 81 78 73 72 72 75 71
8 18 34 35 21 29 25 25 28 39 39 39 44 44 29 35 21 30 46 47 49 54 59 60 58 55 63 67 68 69 75 79 84 85 85 79 77 82 82 73 74 77 79 75
15 10 13 18 31 34 35 23 35 39 39 43 57 30 26 60 72 67 62 61 59 58 63 62 64 67 67 67 70 69 69 70 70 77 85 82 82 82 81 76 75 75 84 79
20 14 17 23 40 44 18 23 56 56 55 54 33 38 68 70 73 70 72 74 75 74 70 73 66 59 63 65 69 78 85 81 81 76 79 89 72 79 74 70 71 79 79 68
12 11 13 36 18 22 30 52 55 54 51 56 63 70 73 74 75 77 83 83 79 77 74 72 67 66 72 70 85 78 72 70 71 73 76 80 75 67 77 83 83 84 72 68
8 11 39 43 42 50 47 54 56 61 62 69 74 72 78 77 87 90 88 81 74 73 75 69 65 63 63 72 77 67 64 66 67 69 74 69 78 76 77 79 76 73 67 67
19 9 34 65 46 54 59 71 79 81 80 78 82 83 78 95 82 75 76 75 72 67 63 61 56 60 66 69 65 63 63 65 60 64 68 71 72 70 72 75 74 70 61 69
27 29 63 31 54 60 72 77 76 79 75 85 87 71 78 74 78 74 71 72 65 64 69 71 63 61 65 63 59 68 67 60 63 59 66 73 67 69 71 76 70 64 72 80
8 46 37 50 71 82 81 71 68 82 82 81 67 71 71 73 69 66 70 67 65 63 70 75 64 62 67 69 59 58 61 64 62 57 59 64 66 58 70 60 63 73 81 72
16 47 58 69 69 67 76 66 84 86 73 79 71 66 69 71 73 72 70 70 73 73 71 68 65 66 63 54 46 49 53 60 56 53 56 51 42 40 63 69 69 64 58 48
36 39 44 50 64 83 61 83 91 82 72 73 71 69 66 67 70 68 73 74 73 73 66 62 61 66 59 47 49 56 53 46 47 45 52 40 52 75 73 74 76 61 54 56
42 54 58 73 69 73 76 81 81 72 71 74 70 64 63 66 70 73 71 69 67 66 68 64 59 62 50 41 41 33 36 40 28 30 42 49 76 79 84 87 82 77 71 63
57 55 58 64 66 73 80 83 82 79 78 78 72 71 67 66 61 60 61 60 61 70 66 65 65 60 46 36 35 40 32 21 52 50 80 82 72 74 82 80 79 78 74 66
49 59 62 62 67 75 77 85 78 82 79 78 77 69 63 57 55 54 56 49 48 54 49 50 57 51 38 32 37 29 43 58 52 54 67 70 63 72 75 68 61 65 63 58
42 50 58 65 60 73 81 80 89 84 84 79 73 69 64 60 59 53 43 25 26 30 22 16 36 49 36 30 30 36 48 58 71 76 75 71 71 67 60 62 57 60 63 54
41 52 56 63 57 69 84 83 88 81 93 80 77 72 58 53 51 45 37 47 45 57 33 38 35 39 34 38 44 52 58 67 72 68 71 67 66 60 58 55 57 63 65 52
42 46 55 62 61 62 82 90 87 82 100 88 85 78 67 62 59 56 55 68 57 54 40 38 41 49 50 55 57 63 60 65 69 78 63 72 69 62 57 64 73 67 61 57
44 48 54 62 66 65 72 89 87 88 98 86 78 76 65 63 61 68 77 77 70 56 61 54 45 47 49 56 59 49 62 63 70 74 74 73 63 58 70 77 73 67 61 52
45 49 58 63 66 68 69 86 91 95 91 95 91 84 75 74 67 66 68 71 65 40 44 35 40 48 57 51 57 58 63 64 66 68 71 65 62 64 73 76 67 60 50 50
43 46 50 55 61 62 67 71 92 91 94 101 96 90 84 71 72 69 64 59 56 57 56 57 56 55 52 54 52 48 56 56 67 69 66 61 59 57 63 70 60 53 52 54
55 54 49 48 53 60 72 71 84 94 95 93 96 89 86 79 63 55 46 41 41 42 45 36 29 26 39 48 51 55 60 62 63 70 68 58 49 46 60 63 59 55 56 54
44 54 60 52 52 59 65 71 70 86 94 92 96 92 87 77 66 56 49 41 38 38 37 31 29 35 44 47 55 60 64 65 66 68 61 52 51 62 62 59 58 56 55 53
38 45 55 54 49 49 62 70 59 78 84 92 91 91 87 84 70 59 51 44 37 39 38 35 33 37 42 44 47 56 61 60 60 61 62 61 62 68 60 59 57 56 52 50
33 38 46 60 66 54 55 63 57 77 69 78 79 83 83 81 75 70 59 51 42 37 38 37 37 41 43 46 49 49 52 56 57 59 55 52 61 67 60 59 58 56 55 56
Wind_Direction_850mb
285 284 285 292 292 255 261 279 273 268 270 276 284 206 238 233 266 295 283 275 246 216 251 244 249 250 257 258 260 268 277 279 280 280 281 283 282 277 276 276 270 265 266 249
282 284 284 280 295 287 278 268 265 268 262 261 266 265 250 234 238 242 264 301 311 259 234 271 281 281 281 288 280 270 269 270 282 282 283 283 279 275 274 272 269 268 264 254
282 288 305 277 260 274 291 304 301 298 299 326 329 270 287 331 330 308 284 274 310 287 299 300 304 296 298 295 290 281 276 274 274 277 276 278 279 273 269 269 269 268 264 261
283 299 283 282 320 295 151 281 300 241 253 280 338 326 324 280 321 306 288 305 324 323 310 304 302 294 289 287 283 280 277 274 273 275 275 269 270 268 266 264 265 265 261 263
262 264 289 298 360 321 326 324 24 0 348 348 336 325 281 243 14 316 299 311 306 300 300 298 293 290 284 281 281 278 275 273 272 273 265 266 264 260 263 259 260 260 263 265
281 273 279 313 24 352 340 281 9 343 335 331 331 319 315 326 319 314 308 305 296 294 290 284 284 282 283 280 277 272 271 268 264 262 261 260 263 256 258 257 256 256 266 262
247 254 273 18 348 329 304 331 333 331 327 328 315 301 306 309 306 304 304 299 294 288 284 284 280 277 278 274 269 270 271 271 270 263 258 254 267 252 253 253 259 259 264 249
251 245 263 10 357 359 311 312 316 317 315 313 307 300 296 296 296 300 299 295 292 289 284 283 283 282 279 267 275 280 279 271 266 262 259 259 258 255 253 252 258 259 252 241
294 298 316 350 333 329 350 334 325 319 316 308 304 305 306 302 302 296 289 288 289 286 284 282 278 275 269 270 281 281 277 269 264 258 254 241 248 254 253 250 251 253 240 223
331 310 343 335 338 337 326 317 308 307 308 301 305 301 295 299 292 287 286 286 284 281 277 278 276 272 272 275 282 282 272 268 265 262 256 249 254 253 250 248 254 234 223 194
291 304 336 314 319 316 316 316 309 303 301 304 298 294 299 293 289 284 283 284 282 281 281 279 280 278 276 278 274 275 267 265 260 257 256 254 259 258 246 253 227 217 199 187
286 308 301 293 304 310 310 313 319 319 312 311 296 300 297 292 289 287 287 286 281 276 278 280 279 275 273 274 273 270 266 262 256 256 253 258 259 246 232 219 199 197 192 185
285 294 295 296 303 310 308 317 327 320 307 313 304 300 300 294 290 288 285 284 281 281 280 280 278 276 270 272 259 264 254 259 262 256 255 230 224 204 164 165 170 161 185 184
307 315 310 309 306 314 323 322 323 323 309 313 311 310 303 298 297 291 286 286 286 285 282 278 275 269 266 261 261 259 256 258 258 245 201 201 188 178 149 143 139 137 141 149
320 320 302 303 320 327 328 331 328 321 324 319 320 315 312 306 300 293 293 291 286 281 277 271 264 262 261 252 250 259 260 253 217 195 202 171 145 138 146 145 141 142 144 147
321 317 321 331 331 336 334 336 336 329 328 327 322 322 319 312 302 302 300 293 283 275 270 262 255 249 249 249 242 250 257 213 158 171 142 143 132 136 144 138 134 138 142 143
321 321 324 328 340 337 335 339 329 335 330 329 332 331 332 327 323 311 306 303 290 280 276 263 244 231 216 227 236 222 216 159 154 145 146 133 124 133 142 133 134 145 143 142
323 320 325 331 340 333 334 333 337 335 340 337 342 345 346 344 339 338 343 359 33 59 94 101 161 164 171 191 196 165 157 152 145 136 134 128 122 127 126 131 140 137 136 131
333 328 331 337 342 341 340 339 340 340 352 354 354 355 0 359 358 2 20 26 49 55 102 123 148 149 160 161 161 158 150 140 145 137 130 126 127 131 135 134 132 133 134 139
337 338 336 338 343 343 345 347 345 348 359 4 6 9 12 16 23 31 45 43 40 47 92 130 137 145 144 147 149 146 145 147 131 136 128 130 125 127 136 134 138 134 140 142
339 340 338 341 344 349 351 352 353 356 1 9 11 11 13 15 27 35 46 47 58 66 109 126 123 127 129 147 149 140 134 135 127 130 130 132 141 142 141 140 140 143 142 145
340 341 340 343 346 350 354 353 360 1 5 13 18 19 21 24 34 47 42 42 60 91 117 110 123 128 138 135 137 136 138 136 140 142 141 144 142 143 149 151 147 147 149 152
349 343 341 346 348 350 358 354 4 3 8 15 20 20 26 28 27 33 37 46 60 79 98 112 120 124 124 126 134 145 147 150 143 145 143 143 147 149 154 157 156 154 151 148
5 3 351 347 352 356 359 360 2 8 11 15 24 24 24 23 31 34 35 44 60 75 81 87 110 131 138 137 140 142 146 149 148 150 155 151 147 146 152 156 157 157 156 153
350 353 4 3 357 356 356 1 2 9 11 15 22 25 28 28 26 23 30 42 65 77 85 86 101 122 127 136 142 142 146 148 151 154 151 149 145 144 143 150 153 151 151 150
358 354 359 4 356 359 0 0 4 7 10 14 21 23 24 26 27 31 34 37 57 79 90 104 116 124 130 138 145 149 150 155 158 157 156 155 153 148 146 141 144 151 148 147
7 1 3 8 11 9 15 5 3 5 10 12 17 20 20 23 25 31 35 37 43 65 85 102 116 126 134 139 143 148 154 157 160 163 161 154 152 154 153 148 145 144 146 146